Photometre #853[NE_1.6_Dp] Stornoway_MO AOT

File : 20220922_853.hum

22/09/2022,07:16:40,TEMP=11.6,BA=5.72,STAT.A,ExtBa=12.20
22/09/2022,07:20:24,TEMP=11.9,BA=5.72,STAT.D,ExtBa=12.20
22/09/2022,07:22:24,TEMP=12.3,BA=5.72,STAT.A,ExtBa=12.30
22/09/2022,07:27:28,TEMP=12.3,BA=5.72,STAT.A,ExtBa=12.30
22/09/2022,07:32:24,TEMP=12.5,BA=5.72,STAT.D,ExtBa=12.30
22/09/2022,07:34:18,TEMP=13.0,BA=5.72,STAT.A,ExtBa=12.30
22/09/2022,07:40:24,TEMP=13.0,BA=5.72,STAT.D,ExtBa=12.30
22/09/2022,07:42:49,TEMP=13.4,BA=5.72,STAT.A,ExtBa=12.30
22/09/2022,07:48:24,TEMP=13.3,BA=5.72,STAT.D,ExtBa=12.30
22/09/2022,07:52:24,TEMP=13.5,BA=5.68,STAT.D,ExtBa=12.40
22/09/2022,07:54:25,TEMP=13.9,BA=5.68,STAT.A,ExtBa=12.30
22/09/2022,08:00:24,TEMP=13.7,BA=5.72,STAT.D,ExtBa=12.40
22/09/2022,08:04:24,TEMP=13.9,BA=5.72,STAT.D,ExtBa=12.40
22/09/2022,08:06:40,TEMP=14.2,BA=5.72,STAT.B,ExtBa=12.40
22/09/2022,08:15:42,TEMP=14.4,BA=5.52,STAT.A,ExtBa=12.30
22/09/2022,08:20:24,TEMP=14.3,BA=5.72,STAT.D,ExtBa=12.40
22/09/2022,08:22:32,TEMP=14.7,BA=5.72,STAT.A,ExtBa=12.30
22/09/2022,08:28:25,TEMP=14.9,BA=5.72,STAT.D,ExtBa=12.40
22/09/2022,08:30:26,TEMP=15.3,BA=5.60,STAT.A,ExtBa=12.40
22/09/2022,08:38:26,TEMP=14.5,BA=5.60,STAT.A,ExtBa=12.40
22/09/2022,08:49:42,TEMP=13.9,BA=5.52,STAT.C,ExtBa=12.40
22/09/2022,09:03:08,TEMP=13.6,BA=5.72,STAT.A,ExtBa=12.40
22/09/2022,09:16:25,TEMP=13.4,BA=5.72,STAT.D,ExtBa=12.40
22/09/2022,09:18:24,TEMP=13.7,BA=5.72,STAT.F,ExtBa=12.40
22/09/2022,09:32:25,TEMP=13.2,BA=5.72,STAT.D,ExtBa=12.40
22/09/2022,09:34:23,TEMP=13.6,BA=5.72,STAT.D,ExtBa=12.40
22/09/2022,09:48:13,TEMP=13.6,BA=5.60,STAT.D,ExtBa=12.40
22/09/2022,09:52:25,TEMP=14.2,BA=5.68,STAT.D,ExtBa=12.40
22/09/2022,10:03:13,TEMP=14.5,BA=5.72,STAT.D,ExtBa=12.40
22/09/2022,10:08:25,TEMP=15.2,BA=5.72,STAT.D,ExtBa=12.40
22/09/2022,10:12:25,TEMP=15.5,BA=5.56,STAT.D,ExtBa=12.40
22/09/2022,10:18:15,TEMP=15.8,BA=5.56,STAT.F,ExtBa=12.40
22/09/2022,10:33:13,TEMP=14.9,BA=5.72,STAT.D,ExtBa=12.40
22/09/2022,10:44:25,TEMP=15.8,BA=5.72,STAT.D,ExtBa=12.40
22/09/2022,10:48:13,TEMP=16.2,BA=5.72,STAT.D,ExtBa=12.40
22/09/2022,10:52:25,TEMP=16.6,BA=5.68,STAT.D,ExtBa=12.40
22/09/2022,10:56:25,TEMP=16.9,BA=5.68,STAT.D,ExtBa=12.40
22/09/2022,11:00:25,TEMP=17.0,BA=5.72,STAT.D,ExtBa=12.40
22/09/2022,11:03:13,TEMP=17.3,BA=5.72,STAT.D,ExtBa=12.40
22/09/2022,11:08:25,TEMP=17.3,BA=5.72,STAT.D,ExtBa=12.40
22/09/2022,11:12:25,TEMP=17.5,BA=5.68,STAT.D,ExtBa=12.40
22/09/2022,11:16:25,TEMP=17.6,BA=5.68,STAT.D,ExtBa=12.40
22/09/2022,11:18:48,TEMP=18.0,BA=5.68,STAT.F,ExtBa=12.20
22/09/2022,11:33:13,TEMP=16.2,BA=5.68,STAT.D,ExtBa=12.40
22/09/2022,11:44:25,TEMP=15.6,BA=5.68,STAT.D,ExtBa=12.40
22/09/2022,11:48:13,TEMP=15.9,BA=5.68,STAT.D,ExtBa=12.40
22/09/2022,11:52:25,TEMP=15.7,BA=5.68,STAT.D,ExtBa=12.40
22/09/2022,12:03:13,TEMP=14.7,BA=5.68,STAT.D,ExtBa=12.40
22/09/2022,12:08:25,TEMP=14.6,BA=5.68,STAT.D,ExtBa=12.40
22/09/2022,12:18:15,TEMP=14.2,BA=5.68,STAT.F,ExtBa=12.40
22/09/2022,12:32:25,TEMP=15.1,BA=5.68,STAT.D,ExtBa=12.40
22/09/2022,12:34:22,TEMP=15.8,BA=5.68,STAT.D,ExtBa=12.40
22/09/2022,12:40:25,TEMP=16.3,BA=5.68,STAT.D,ExtBa=12.40
22/09/2022,12:44:25,TEMP=16.6,BA=5.68,STAT.D,ExtBa=12.40
22/09/2022,12:48:13,TEMP=16.6,BA=5.68,STAT.D,ExtBa=12.40
22/09/2022,13:00:25,TEMP=16.1,BA=5.68,STAT.D,ExtBa=12.40
22/09/2022,13:03:13,TEMP=16.2,BA=5.68,STAT.D,ExtBa=12.40
22/09/2022,13:16:25,TEMP=15.7,BA=5.68,STAT.D,ExtBa=12.40
22/09/2022,13:18:24,TEMP=16.2,BA=5.68,STAT.F,ExtBa=12.40
22/09/2022,13:33:13,TEMP=15.5,BA=5.68,STAT.D,ExtBa=12.30
22/09/2022,13:44:25,TEMP=16.1,BA=5.68,STAT.D,ExtBa=12.40
22/09/2022,13:48:13,TEMP=16.1,BA=5.68,STAT.D,ExtBa=12.40
22/09/2022,13:52:25,TEMP=16.5,BA=5.68,STAT.D,ExtBa=12.40
22/09/2022,13:56:25,TEMP=16.8,BA=5.68,STAT.D,ExtBa=12.40
22/09/2022,14:00:25,TEMP=17.0,BA=5.68,STAT.D,ExtBa=12.40
22/09/2022,14:03:13,TEMP=17.0,BA=5.68,STAT.D,ExtBa=12.30
22/09/2022,14:08:25,TEMP=16.9,BA=5.68,STAT.D,ExtBa=12.30
22/09/2022,14:12:25,TEMP=16.9,BA=5.52,STAT.D,ExtBa=12.30
22/09/2022,14:16:25,TEMP=17.1,BA=5.52,STAT.D,ExtBa=12.40
22/09/2022,14:18:25,TEMP=17.5,BA=5.52,STAT.F,ExtBa=12.30
22/09/2022,14:32:25,TEMP=16.5,BA=5.68,STAT.D,ExtBa=12.40
22/09/2022,14:34:27,TEMP=16.6,BA=5.68,STAT.D,ExtBa=12.30
22/09/2022,14:44:25,TEMP=16.0,BA=5.68,STAT.D,ExtBa=12.40
22/09/2022,14:48:13,TEMP=16.2,BA=5.68,STAT.D,ExtBa=12.40
22/09/2022,14:52:25,TEMP=16.5,BA=5.64,STAT.D,ExtBa=12.40
22/09/2022,14:56:25,TEMP=16.7,BA=5.64,STAT.D,ExtBa=12.40
22/09/2022,15:00:25,TEMP=16.6,BA=5.68,STAT.D,ExtBa=12.40
22/09/2022,15:03:13,TEMP=16.7,BA=5.68,STAT.D,ExtBa=12.20
22/09/2022,15:08:25,TEMP=16.7,BA=5.68,STAT.D,ExtBa=12.30
22/09/2022,15:12:25,TEMP=16.9,BA=5.52,STAT.D,ExtBa=12.30
22/09/2022,15:16:25,TEMP=16.9,BA=5.52,STAT.D,ExtBa=12.30
22/09/2022,15:18:25,TEMP=17.2,BA=5.52,STAT.F,ExtBa=12.30
22/09/2022,15:43:09,TEMP=17.0,BA=5.52,STAT.A,ExtBa=12.20
22/09/2022,15:46:46,TEMP=16.6,BA=5.52,STAT.C,ExtBa=12.30
22/09/2022,16:12:17,TEMP=16.4,BA=5.52,STAT.A,ExtBa=12.10
22/09/2022,16:15:29,TEMP=15.8,BA=5.52,STAT.A,ExtBa=12.30
22/09/2022,16:17:37,TEMP=15.9,BA=5.52,STAT.A,ExtBa=12.20
22/09/2022,16:20:24,TEMP=15.8,BA=5.68,STAT.D,ExtBa=12.20
22/09/2022,16:23:19,TEMP=15.8,BA=5.68,STAT.A,ExtBa=12.30
22/09/2022,16:29:48,TEMP=15.3,BA=5.68,STAT.B,ExtBa=12.30
22/09/2022,16:40:24,TEMP=14.9,BA=5.68,STAT.D,ExtBa=12.20
22/09/2022,16:43:11,TEMP=14.8,BA=5.68,STAT.A,ExtBa=12.30
22/09/2022,16:53:39,TEMP=14.1,BA=5.68,STAT.A,ExtBa=12.30
22/09/2022,17:02:04,TEMP=13.7,BA=5.68,STAT.A,ExtBa=12.30
22/09/2022,17:09:00,TEMP=13.4,BA=5.68,STAT.A,ExtBa=12.30
22/09/2022,17:14:49,TEMP=13.1,BA=5.52,STAT.A,ExtBa=12.30
22/09/2022,17:19:47,TEMP=13.2,BA=5.52,STAT.A,ExtBa=12.30